Powrót do katalogu

FLOCK 4G 16

AktywnyNaukaPO
NORAD 62638·PAYLOAD·🇺🇸 United States

Wystrzelony Jan 14, 2025 z Vandenberg Space Force Base

Loading…

Następne Przeloty (najbliższe 24 godziny)

TLE

Starzejące sięSource: Space-Track

Epoka: Sep 7, 2026, 20:06 UTC

1 62638U 25009AF  26250.83760609  .05968266  24647-5  14991-2 0  9991
2 62638  97.3651 346.8474 0014946 274.9589  84.9998 16.28711644 92550

Śledź FLOCK 4G 16 w czasie rzeczywistym z AllMySat

Download on the App Store